Regional Weather Roundup
Issued by NWS

Home | Current Version | Previous Version | Graphics & Text | Print | Product List | Glossary On
Versions: 1 2 3 4 5 6 7 8 9 10 11 12 13 14 15 16 17 18 19 20 21 22 23 24 25 26 27 28 29 30 31 32 33 34 35 36 37 38 39 40 41 42 43 44 45 46 47 48 49 50
000
ASUS43 KBIS 252102
RWRND

NORTH DAKOTA REGIONAL WEATHER ROUNDUP
NATIONAL WEATHER SERVICE BISMARCK ND
400 PM CDT THU MAY 25 2017

NOTE: "FAIR" INDICATES FEW OR NO CLOUDS BELOW 12,000 FEET WITH NO
SIGNIFICANT WEATHER AND/OR OBSTRUCTIONS TO VISIBILITY.


NDZ001>003-009>011-017-252200-
NORTHWEST NORTH DAKOTA

CITY           SKY/WX    TMP DP  RH WIND       PRES   REMARKS
WILLISTON      CLOUDY    59  44  57 W18G25    29.42R
MINOT          PTSUNNY   69  43  38 SW17      29.39R
MINOT AFB      MOSUNNY   66  44  45 SW17G25   29.38R
$$

NDZ018>021-031>035-040>046-252200-
SOUTHWEST NORTH DAKOTA

CITY           SKY/WX    TMP DP  RH WIND       PRES   REMARKS
BISMARCK       FAIR      76  38  25 W20G25    29.44R
DICKINSON      PTSUNNY   63  39  41 W26G35    29.48R
GARRISON         N/A     69  43  38 W20G30    29.42R
HETTINGER ARPT MOSUNNY   69  36  29 W24G35    29.51R
$$

NDZ004>008-012>016-024-026-027-054-252200-
NORTHEAST NORTH DAKOTA

CITY           SKY/WX    TMP DP  RH WIND       PRES   REMARKS
GRAND FORKS    CLOUDY    68  48  48 S20G26    29.48S
GRND FRKS AFB  CLOUDY    65  48  52 S17G25    29.47F
DEVILS LAKE    FAIR      68  49  50 S16       29.44S
$$

NDZ022-023-025-028>030-036>039-047>053-252200-
SOUTHEAST NORTH DAKOTA

CITY           SKY/WX    TMP DP  RH WIND       PRES   REMARKS
FARGO          CLOUDY    67  49  52 S24G35    29.49S
JAMESTOWN      FAIR      69  50  50 S10       29.45R
$$





USA.gov is the U.S. government's official web portal to all federal, state and local government web resources and services.